DW7554 Weather Reports


time (UTC)temp
F
wind
direction
speed
knots
gust
knots
rain 1hr
in
rain 24hr
in
rain mn
in
humidity
%
barometer
mb
20260502214507 45 63 1.7 13.9 0.00 0.00 0.00 71 1016.0
20260502213007 45 64 1.7 13.9 0.00 0.00 0.00 71 1015.9
20260502211515 46 55 2.6 13.9 0.00 0.00 0.00 71 1015.9
20260502210005 47 90 0.9 13.9 0.00 0.00 0.00 68 1016.2
20260502204503 46 64 0.9 13.9 0.00 0.00 0.00 70 1016.0
20260502203004 46 63 0.9 13.9 0.00 0.00 0.00 70 1016.1
20260502201506 47 84 0.9 13.9 0.00 0.00 0.00 69 1016.1
20260502200002 48 49 0.0 13.9 0.00 0.00 0.00 68 1016.2
20260502194501 48 63 1.7 13.9 0.00 0.00 0.00 67 1016.2
20260502193001 49 60 0.9 13.9 0.00 0.00 0.00 66 1016.1
20260502191601 50 77 0.9 13.9 0.00 0.00 0.00 65 1015.8
20260502190100 52 58 0.9 13.9 0.00 0.00 0.00 57 1015.8
20260502184559 52 65 1.7 13.9 0.00 0.00 0.00 60 1015.7
20260502183102 54 101 1.7 13.9 0.00 0.00 0.00 54 1015.4
20260502181559 55 49 2.6 13.9 0.00 0.00 0.00 51 1015.2
20260502180105 57 63 1.7 13.9 0.00 0.00 0.00 48 1015.1
20260502163112 65 94 5.2 13.9 0.00 0.00 0.00 33 1014.8
20260502161555 65 88 7.0 13.9 0.00 0.00 0.00 34 1014.9
20260502151553 65 92 7.0 13.0 0.00 0.00 0.00 36 1015.4
20260502123030 64 255 4.3 8.7 0.00 0.00 0.00 41 1017.4
20260502121528 64 220 4.3 8.7 0.00 0.00 0.00 40 1017.6
20260502114529 63 266 5.2 9.6 0.00 0.00 0.00 42 1017.9
20260502113025 63 269 6.1 10.4 0.00 0.00 0.00 45 1018.2
20260502111517 62 285 4.3 9.6 0.00 0.00 0.00 45 1018.3
20260502110018 61 285 6.1 11.3 0.00 0.00 0.00 46 1018.7
20260502104514 60 290 7.0 10.4 0.00 0.00 0.00 46 1018.9
20260502103007 59 296 7.0 11.3 0.00 0.00 0.00 47 1019.1
20260502101505 59 257 7.0 10.4 0.00 0.00 0.00 50 1019.3
20260502071528 51 235 3.5 5.2 0.00 0.00 0.00 56 1021.0
20260502070029 51 219 1.7 5.2 0.00 0.00 0.00 60 1021.3
20260502064539 49 214 1.7 5.2 0.00 0.00 0.00 62 1021.4
20260502063025 51 215 0.9 3.5 0.00 0.00 0.00 58 1021.4
20260502061519 47 83 0.0 0.0 0.00 0.00 0.00 66 1021.4
20260502060029 45 77 0.0 0.0 0.00 0.00 0.00 74 1021.6
20260502054510 43 78 0.9 0.0 0.00 0.00 0.00 76 1021.8
20260502053006 41 88 0.0 0.0 0.00 0.00 0.00 79 1021.9
20260502051505 0 0.0 0.0 0.00 0.00 0.00 1021.9
20260502050058 0 0.0 0.0 0.00 0.00 0.00 1021.9
20260502044605 0 0.0 0.0 0.00 0.00 0.00 1022.1
20260502043122 0 0.0 0.0 0.00 0.00 0.00 1022.2
20260502041556 0 0.0 0.0 0.00 0.00 0.00 1022.3
20260502040042 0 0.0 0.0 0.00 0.00 0.00 1022.5
20260502034538 34 75 0.9 2.6 0.00 0.00 0.00 87 1022.5
20260502033037 35 59 1.7 11.3 0.00 0.00 0.00 88 1022.7
20260502031536 35 66 1.7 11.3 0.00 0.00 0.00 86 1022.7
20260502030035 36 73 1.7 11.3 0.00 0.00 0.00 87 1022.8
20260502024534 35 76 1.7 11.3 0.00 0.00 0.00 87 1022.8
20260502023032 36 92 0.0 11.3 0.00 0.00 0.00 85 1022.8
20260502021529 36 103 0.9 11.3 0.00 0.00 0.00 84 1022.8
20260502020033 36 67 1.7 11.3 0.00 0.00 0.00 86 1022.8
20260502014529 36 67 1.7 11.3 0.00 0.00 0.00 85 1022.9
20260502013023 36 63 1.7 11.3 0.00 0.00 0.00 83 1022.9
20260502011522 37 70 1.7 11.3 0.00 0.00 0.00 82 1023.1
20260502010028 37 53 1.7 11.3 0.00 0.00 0.00 83 1023.1
20260502004527 37 83 0.9 11.3 0.00 0.00 0.00 84 1023.2
20260502003023 37 58 1.7 11.3 0.00 0.00 0.00 84 1023.2
20260502001518 37 73 2.6 11.3 0.00 0.00 0.00 84 1023.3
20260502000021 37 66 0.9 11.3 0.00 0.00 0.00 83 1023.5
20260501234515 37 68 2.6 11.3 0.00 0.00 0.00 83 1023.6
20260501233013 37 71 1.7 11.3 0.00 0.00 0.00 82 1023.4
20260501231510 38 69 0.0 11.3 0.00 0.00 0.00 81 1023.5
20260501230016 39 70 0.9 11.3 0.00 0.00 0.00 79 1023.6
20260501224505 39 81 0.0 11.3 0.00 0.00 0.00 78 1023.6
20260501223003 40 64 0.0 11.3 0.00 0.00 0.00 77 1023.6
20260501221600 40 64 0.0 11.3 0.00 0.00 0.00 77 1023.6
20260501220109 40 60 0.0 11.3 0.00 0.00 0.00 76 1023.5